This is the latest recevied weather packets stored in our database for station/object W9GWP. If no packets are shown the sender has not sent any weather packets the latest 10 day(s).
| Time | Temp. | Humidity | Pressure | Rain* | Wind** | Luminosity | Snow |
|---|---|---|---|---|---|---|---|
| 1777706034 | -1.67° C | 95% | 1048.3 hPa | 0 mm | - | 0 W/m² | - |
| 1777705135 | -1.67° C | 95% | 1048.2 hPa | 0 mm | - | 0 W/m² | - |
| 1777704234 | -1.11° C | 95% | 1048.6 hPa | 0 mm | - | 0 W/m² | - |
| 1777703331 | -1.11° C | 95% | 1048.7 hPa | 0 mm | - | 0 W/m² | - |
| 1777702431 | -1.11° C | 95% | 1048.6 hPa | 0 mm | - | 0 W/m² | - |
| 1777701531 | -1.11° C | 95% | 1048.9 hPa | 0 mm | - | 0 W/m² | - |
| 1777700631 | -0.56° C | 95% | 1048.8 hPa | 0 mm | - | 0 W/m² | - |
| 1777699729 | -0.56° C | 94% | 1049 hPa | 0 mm | - | 0 W/m² | - |
| 1777698823 | -0.56° C | 93% | 1048.9 hPa | 0 mm | - | 0 W/m² | - |
| 1777697918 | -0.56° C | 93% | 1048.9 hPa | 0 mm | - | 0 W/m² | - |
| 1777697013 | -0.56° C | 93% | 1048.4 hPa | 0 mm | - | 0 W/m² | - |
| 1777696108 | 0° C | 92% | 1048.3 hPa | 0 mm | - | 0 W/m² | - |
| 1777695206 | 0° C | 92% | 1048.4 hPa | 0 mm | - | 0 W/m² | - |
| 1777694302 | 0° C | 90% | 1048.4 hPa | 0 mm | - | 0 W/m² | - |
| 1777693400 | 0° C | 89% | 1048.6 hPa | 0 mm | - | 0 W/m² | - |
| 1777692498 | 0° C | 88% | 1048.3 hPa | 0 mm | - | 0 W/m² | - |
| 1777691596 | 0° C | 86% | 1048.6 hPa | 0 mm | - | 0 W/m² | - |
| 1777690695 | 0° C | 84% | 1048.3 hPa | 0 mm | - | 0 W/m² | - |
| 1777689794 | 1.11° C | 83% | 1048.1 hPa | 0 mm | - | 0 W/m² | - |
| 1777688892 | 1.11° C | 80% | 1048.2 hPa | 0 mm | - | 0 W/m² | - |
| 1777687988 | 1.67° C | 77% | 1048.1 hPa | 0 mm | - | 0 W/m² | - |
| 1777687086 | 2.78° C | 74% | 1047.9 hPa | 0 mm | - | 0 W/m² | - |
| 1777686183 | 2.78° C | 73% | 1047.8 hPa | 0 mm | - | 0 W/m² | - |
| 1777685283 | 2.78° C | 72% | 1047.6 hPa | 0 mm | - | 0 W/m² | - |
| 1777684380 | 3.33° C | 72% | 1047.8 hPa | 0 mm | - | 0 W/m² | - |
* Rain latest hour (hover to see other rain measurements)
** Current wind speed in m/s (hover to see current wind gust speed)